Tracking 19247 objects as of 24-Sep-2018
HD Live streaming from Space Station
objects crossing your sky now

COSMOS 1581

Track COSMOS 1581 now!
COSMOS 1581 is classified as:


NORAD ID: 15095
Int'l Code: 1984-071A
Perigee: 4,059.7 km
Apogee: 36,467.2 km
Inclination: 66.5 °
Period: 721.0 minutes
Semi major axis: 26634 km
RCS: 9.1322 m2 (large)
Launch date: July 3, 1984
Source: Commonwealth of Independent States (former USSR) (CIS)
Launch site: PLESETSK MISSILE AND SPACE COMPLEX (PKMTR)
aabbcc
Your satellite tracking list
Your tracking list is empty




NASA's NSSDC Master Catalog

Two Line Element Set (TLE):
1 15095U 84071A   18266.33712324 -.00000641 +00000-0 +00000-0 0  9990
2 15095 066.5426 264.3211 6083766 055.8439 347.8203 01.99727383224071
Source of the keplerian elements: AFSPC